Albany, NY

5:37 PM EST on November 18, 2017 (GMT -0500)
Albany International

Weather History for KALB - February, 2013

Change the Weather History Date:

Saturday, February 16, 2013

  Actual Average Record
Temperature  
Mean Temperature 28 °F 26 °F  
Max Temperature 33 °F 35 °F 61 °F (2006)
Min Temperature 23 °F 17 °F -20 °F (1943)
Degree Days  
Heating Degree Days 37 39  
Month to date heating degree days 641 647  
Since 1 July heating degree days 4117 4498  
Cooling Degree Days 0 0  
Month to date cooling degree days 0 0  
Year to date cooling degree days 0 0  
Moisture  
Dew Point 16 °F    
Average Humidity 69    
Maximum Humidity 92    
Minimum Humidity 46    
Precipitation  
Precipitation T in 0.08 in 1.26 in (1958)
Month to date precipitation 0.65 1.23  
Year to date precipitation 2.11 3.82  
Snow  
Snow 0.10 in 0.40 in 17.30 in (1958)
Month to date snowfall 7.2 7.2  
Since 1 July snowfall 26.8 41.9  
Snow Depth 0.00 in    
Sea Level Pressure  
Sea Level Pressure 29.96 in    
Wind  
Wind Speed 8 mph (NW)    
Max Wind Speed 17 mph    
Max Gust Speed 23 mph    
Visibility 9 miles    
Events Snow    
T = Trace of Precipitation, MM = Missing Value Source: NWS Daily Summary

Daily Weather History Graph

Daily Weather History Graph

Search for Another Location

Airport or City:

Trip Planner

Search our weather history database for the weather conditions in past years. The results will help you decide how hot, cold, wet, or windy it might be!

Date:

Astronomy

Feb. 16, 2013 Rise Set
Actual Time 6:50 AM EST 5:28 PM EST
Civil Twilight 6:21 AM EST 5:57 PM EST
Nautical Twilight 5:48 AM EST 6:30 PM EST
Astronomical Twilight 5:15 AM EST 7:03 PM EST
Moon 9:51 AM EST (2/16) No Moon Set
Length of Visible Light 11h 35m
Length of Day
10h 38m
Waxing Crescent, 39% of the Moon is Illuminated
Feb 16
Waxing Crescent
Feb 17
First Quarter
Feb 25
Full
Mar 4
Last Quarter
Mar 11
New

Hourly Weather History & Observations

Time (EST) Temp. Windchill Dew Point Humidity Pressure Visibility Wind Dir Wind Speed Gust Speed Precip Events Conditions
12:39 AM 30.2 °F 26.7 °F 24.8 °F 80% 30.01 in 2.5 mi Variable 3.5 mph - 0.00 in Snow Light Snow
12:51 AM 30.9 °F 24.3 °F 24.1 °F 76% 30.03 in 2.5 mi West 6.9 mph - 0.00 in Snow Light Snow
1:51 AM 30.0 °F 26.5 °F 27.0 °F 88% 30.01 in 8.0 mi SE 3.5 mph - 0.00 in Snow Light Snow
2:51 AM 30.0 °F - 28.0 °F 92% 30.00 in 10.0 mi Calm Calm - 0.00 in   Overcast
3:51 AM 30.9 °F 23.5 °F 21.9 °F 69% 29.99 in 10.0 mi NW 8.1 mph - N/A   Mostly Cloudy
4:51 AM 28.0 °F 18.1 °F 16.0 °F 61% 30.00 in 10.0 mi WNW 11.5 mph - N/A   Scattered Clouds
5:51 AM 27.0 °F 18.7 °F 16.0 °F 63% 30.00 in 10.0 mi NW 8.1 mph - N/A   Mostly Cloudy
6:51 AM 26.1 °F - 15.1 °F 63% 30.01 in 10.0 mi Calm Calm - N/A   Mostly Cloudy
7:51 AM 26.1 °F 18.4 °F 16.0 °F 66% 30.03 in 10.0 mi WNW 6.9 mph - N/A   Mostly Cloudy
8:51 AM 27.0 °F 18.0 °F 17.1 °F 66% 30.01 in 10.0 mi NNW 9.2 mph - N/A   Mostly Cloudy
9:51 AM 28.9 °F 21.9 °F 17.1 °F 61% 30.01 in 10.0 mi NNW 6.9 mph - N/A   Mostly Cloudy
10:51 AM 30.0 °F 21.1 °F 16.0 °F 56% 30.01 in 10.0 mi NW 10.4 mph - N/A   Mostly Cloudy
11:51 AM 30.0 °F 20.0 °F 16.0 °F 56% 29.98 in 10.0 mi WNW 12.7 mph 17.3 mph N/A   Mostly Cloudy
12:51 PM 32.0 °F 23.6 °F 16.0 °F 52% 29.96 in 10.0 mi NW 10.4 mph - N/A   Mostly Cloudy
1:51 PM 32.0 °F 24.8 °F 15.1 °F 50% 29.94 in 10.0 mi West 8.1 mph - N/A   Mostly Cloudy
2:51 PM 30.9 °F 25.2 °F 12.9 °F 47% 29.93 in 10.0 mi NW 5.8 mph - N/A   Mostly Cloudy
3:51 PM 30.9 °F 24.3 °F 12.9 °F 47% 29.91 in 10.0 mi WNW 6.9 mph - N/A   Mostly Cloudy
4:51 PM 30.0 °F 24.1 °F 12.9 °F 49% 29.91 in 10.0 mi NW 5.8 mph - N/A   Mostly Cloudy
5:51 PM 28.9 °F 22.8 °F 14.0 °F 54% 29.92 in 10.0 mi WNW 5.8 mph - N/A   Mostly Cloudy
6:51 PM 28.9 °F 19.8 °F 12.0 °F 49% 29.92 in 10.0 mi NNW 10.4 mph - N/A   Overcast
7:51 PM 28.0 °F 18.1 °F 12.9 °F 53% 29.91 in 10.0 mi North 11.5 mph - N/A   Overcast
8:51 PM 27.0 °F 15.6 °F 10.0 °F 49% 29.91 in 10.0 mi North 13.8 mph - N/A   Overcast
9:51 PM 26.1 °F 16.8 °F 9.0 °F 49% 29.91 in 10.0 mi NNE 9.2 mph - N/A   Overcast
10:51 PM 25.0 °F 14.8 °F 7.0 °F 46% 29.89 in 10.0 mi NNE 10.4 mph - N/A   Overcast
11:51 PM 23.0 °F 11.7 °F 8.1 °F 53% 29.87 in 10.0 mi North 11.5 mph - N/A   Overcast